www.pogodaiklimat.ru

Погода и климат >> Архив погоды >> Ирак >> Basrah Airport


ПОГОДА в Basrah Airport

  • Прогноз погоды в Basrah Airport
  • Монитор погоды в Basrah Airport
  • Климат города

АРХИВ ПОГОДЫ в Basrah Airport

Время (UTC), дата Ветер
(напр.,м/с)
 
Видим.   Явления Облачность Т
(С)
Тd
(С)
f
(%)
Тe
(С)
Тes
(С)
Комфортность P
(гПа)
Po
(гПа)
Тmin
(С)
Tmax
(С)
R
(мм)
R24
(мм)
S
(см)
09 11.08 ЮВ 7 10 км 5/0
[Ac trans]
+47.1 +12.1 13 +46 +50 опасность
перегрева
998.2 998.0
12 11.08 ЮВ 7 10 км 5/0
[Ac trans]
+47.1 +12.1 13 +46 +48 опасность
перегрева
998.2 998.0
15 11.08 ЮВ 8 10 км ясно +43.6 +15.6 20 +45 +45 опасность
перегрева
997.1 997.0
21 11.08 Ю 2 10 км ясно +33.2 +15.8 35 +36 +36 очень
душно
998.3 998.0
00 12.08 В 4 10 км ясно +33.4 +22.1 52 +42 +42 опасность
перегрева
998.1 998.0
03 12.08 ЮВ 5 4000 м мгла 5/0
[Ac trans]
+32.7 +26.2 69 +49 +49 опасность
перегрева
998.7 999.0
09 12.08 ЮВ 4 10 км 5/0
[Ac trans Ci fib]
+46.3 +11.2 13 +45 +57 опасность
перегрева
999.1 999.0
12 12.08 ЮВ 3 10 км 5/0
[Ac trans Ci fib]
+49.7 +4.2 7 +47 +54 опасность
перегрева
997.3 997.0
00 13.08 ЮВ 3 10 км 4/0
[Ac trans Ci fib]
+35.5 +20.5 42 +42 +42 опасность
перегрева
997.2 997.0
03 13.08 ЮВ 4 10 км 4/0
[Ac trans Ci fib]
+32.3 +23.8 61 +44 +44 опасность
перегрева
998.1 998.0
06 13.08 ЮВ 3 8000 м мгла 1/0
[Ac trans]
+39.7 +21.7 36 +47 +57 опасность
перегрева
999.2 999.0 +31.8
09 13.08 В 3 8000 м мгла ясно +47.2 +11.7 13 +47 +63 опасность
перегрева
998.9 999.0
12 13.08 ЮВ 2 10 км мгла 1/1 1200 м
[Cu hum]
+49.3 +5.8 8 +47 +56 опасность
перегрева
997.6 998.0
15 13.08 С 2 10 км ясно +47.8 +6.9 9 +45 +45 опасность
перегрева
997.2 997.0
18 13.08 ЮВ 2 10 км ясно +40.5 +11.1 17 +39 +39 очень
жарко
998.5 999.0 +50.2
21 13.08 ЮЗ 4 10 км 3/0
[Ac trans]
+34.8 +7.8 19 +33 +33 жарко 998.6 999.0
00 14.08 З 3 10 км 3/0
[Ac trans]
+33.8 +4.5 16 +31 +31 жарко 998.4 998.0
03 14.08 З 4 8000 м мгла 1/0
[Ac trans]
+30.8 +5.7 21 +29 +30 жарко 999.2 999.0
06 14.08 З 5 10 км 1/0
[Ci fib]
+41.4 +5.4 11 +38 +45 очень
жарко
1000.1 1000.0 +30.3
12 14.08 СЗ 4 10 км ясно +51.5 0.0 5 +48 +55 опасность
перегрева
1000.0 1000.0
15 14.08 СЗ 5 10 км ясно +47.0 +5.5 8 +44 +44 опасность
перегрева
997.7 998.0
18 14.08 З 3 10 км ясно +37.4 +12.9 23 +37 +37 очень
жарко
999.5 1000.0 +51.9
21 14.08 СВ 4 10 км 3/0
[Ac trans]
+38.0 +9.8 18 +36 +36 очень
жарко
1000.2 1000.0
00 15.08 З 3 10 км 3/0
[Ac trans]
+31.3 +9.2 25 +30 +30 жарко 999.7 1000.0
03 15.08 СЗ 3 10 км ясно +29.0 +7.0 25 +28 +28 жарко 1000.2 1000.0
06 15.08 СЗ 3 10 км ясно +41.4 +10.4 16 +40 +50 очень
жарко
1001.1 1001.0 +29.0
09 15.08 СЗ 7 10 км ясно +49.4 +2.8 6 +46 +51 опасность
перегрева
1000.3 1000.0
12 15.08 З 8 10 км ясно +49.1 +5.3 8 +46 +48 опасность
перегрева
998.9 999.0
15 15.08 СЗ 3 10 км ясно +46.1 +6.0 9 +43 +43 опасность
перегрева
998.8 999.0
18 15.08 З 3 10 км ясно +36.8 +13.2 24 +37 +37 очень
жарко
1000.5 1001.0 +50.0
21 15.08 СЗ 3 10 км ясно +32.5 +9.8 25 +32 +32 жарко 1000.5 1001.0
00 16.08 СВ 4 10 км ясно +33.0 +13.8 31 +34 +34 очень
жарко
1000.5 1001.0
03 16.08 ЮВ 3 10 км мгла 4/0
[Ac trans]
+30.0 +23.1 67 +40 +41 очень
душно
1001.2 1001.0
06 16.08 В 5 10 км ясно +41.3 +19.7 29 +46 +52 опасность
перегрева
1002.3 1002.0 +29.8
12 16.08 С 4 10 км 1/0
[Ac trans]
+47.0 +8.0 10 +45 +51 опасность
перегрева
1000.5 1001.0
21 16.08 ЮВ 4 10 км ясно +36.0 +20.9 42 +43 +43 опасность
перегрева
1000.7 1001.0
09 17.08 СВ 3 6000 м мгла 1/0
[Ac trans]
+44.6 +20.6 26 +50 +66 опасность
перегрева
1002.1 1002.0
12 17.08 С 3 10 км 3/0
[Ac trans]
+47.8 +9.5 11 +46 +53 опасность
перегрева
1000.1 1000.0
15 17.08 С 3 10 км 3/0
[Ac trans]
+46.1 +7.0 10 +44 +44 опасность
перегрева
999.6 1000.0
18 17.08 штиль 0 10 км ясно +40.8 +8.4 14 +39 +39 очень
жарко
1000.3 1000.0 +48.5
21 17.08 ЮВ 4 10 км ясно +36.4 +12.6 24 +36 +36 очень
жарко
1000.3 1000.0
00 18.08 Ю 3 6000 м мгла ясно +34.1 +26.2 64 +51 +51 опасность
перегрева
1000.2 1000.0
03 18.08 штиль 0 4000 м мгла ясно +33.2 +21.4 50 +41 +42 опасность
перегрева
1000.8 1001.0
06 18.08 З 4 10 км ясно +41.9 +14.0 20 +42 +50 опасность
перегрева
1002.1 1002.0 +32.5

 

Местоположение метеостанции Basrah Airport (Ирак): широта 30.52 долгота 47.78 высота над уровнем моря 3 м.

В архиве по умолчанию представлена погода в Basrah Airport за последнюю неделю. Архивные данные за месяц целиком и за предыдущие месяцы, начиная с января 2011 года, Вы можете получить, выбрав интересующий диапазон дат из раскрывающегося списка и нажав кнопку "Ввод!".

Внимание! Время в таблицах - всемирное. Для получения местного времени необходимо прибавить поправку, которая в Basrah Airport равна 3 ч.

Смотрите также архив погоды в соседних городах и на ближайших метеорологических станциях:

Погода в Basrah (Ирак) (6 км)
Погода в Abadan (Иран) (48 км)
Погода в Abdaly (Кувейт) (50 км)
Погода в Warba (Кувейт) (66 км)
Погода в Sabriyah (Кувейт) (86 км)
Погода в Mitribah (Кувейт) (87 км)
Погода в Fao (Ирак) (92 км)
Погода в Bubiyan (Кувейт) (101 км)
Погода в Ahwaz (Иран) (124 км)
Погода в Failaka Island (Кувейт) (126 км)

Пояснения к столбцам:

Ветер - указаны скорость ветра в м/с - средняя за 10 мин, порывы в срок и между сроками (в фигурных скобках) и направление, откуда дует ветер: С - северный, СВ - северо-восточный, В - восточный, ЮВ - юго-восточный, Ю - южный, ЮЗ - юго-западный, З - западный, СЗ - северо-западный.
Видимость - горизонтальная дальность видимости в метрах или километрах. При видимости от 1 до 10 км при отсутствии осадков обычно наблюдается дымка, при ухудшении видимости до 1 км и менее - туман. В сухую погоду видимость может ухудшаться дымом, пылью или мглою.
Явления - указаны атмосферные явления, наблюдавшиеся в срок или в последний час перед сроком; фигурными скобками обозначены явления, наблюдавшиеся между сроками (за 1-3 часа до срока); квадратными скобками обозначены град или гололедные отложения с указанием их диаметра в мм.
Облачность - указаны через наклонную черту общая и нижняя облачность в баллах и высота нижней границы облаков в метрах; квадратными скобками обозначены формы облаков: Ci - перистые, Cs - перисто-слоистые, Cc - перисто-кучевые, Ac - высококучевые, As - высокослоистые, Sc - слоисто-кучевые, Ns - слоисто-дождевые, Cu - кучевые, Cb - кучево-дождевые. Подробнее классификацию облаков см. в Атласе облаков (PDF).
T - Температура воздуха - температура, измеренная на высоте 2 м над землей.
Td - Температура точки росы - температура, при понижении до которой содержащийся в воздухе водяной пар достигнет насыщения.
f - Относительная влажность воздуха - влажноcть воздуха, измеренная на высоте 2 м над землей.
Te - Эффективная температура - температура, которую ощущает одетый по сезону человек в тени. Характеристика душности погоды. При расчете учитывается влияние влажности воздуха и скорости ветра на теплоощущения человека.
Tes - Эффективная температура на солнце - температура, которую ощущает человек, с поправкой на солнечный нагрев. Характеристика знойности погоды. Зависит от высоты солнца над горизонтом, облачности и скорости ветра. Ночью, в пасмурную погоду, а также при ветре 12 м/с и более поправка равна нулю.
P - Атмосферное давление - приведенное к уровню моря атмосферное давление.
Po - Атмосферное давление - измеренное на уровне метеостанции атмосферное давление.
Tmin - Минимальная температура - минимум температуры воздуха на высоте 2 м над землей.
Tmax - Максимальная температура - максимум температуры воздуха на высоте 2 м над землей.
R - Количество осадков - Количество выпавших осадков за период времени, мм. При наведении курсора мыши на число - период времени, за который выпало указанное количество осадков.
R24 - Количество осадков - Количество выпавших осадков за 24 часа, мм.
S - Снежный покров - Высота снежного покрова, см. При наведении курсора мыши на число - состояние снежного покрова и степень покрытия местности в баллах.